Pine Bluff, AR

2:24 AM CDT on April 30, 2017 (GMT -0500)
Grider

Weather History for KPBF - January, 2014

Change the Weather History Date:

Sunday, January 5, 2014

  Actual Average Record
Temperature  
Mean Temperature 38 °F 42 °F  
Max Temperature 56 °F 51 °F 78 °F (1913)
Min Temperature 19 °F 33 °F 12 °F (1959)
Degree Days  
Heating Degree Days 27 23  
Month to date heating degree days 140 115  
Since 1 July heating degree days 1416 1268  
Cooling Degree Days 0 0  
Month to date cooling degree days 0 0  
Year to date cooling degree days 0 0  
Moisture  
Dew Point 35 °F    
Average Humidity 75    
Maximum Humidity 92    
Minimum Humidity 57    
Precipitation  
Precipitation 0.05 in 0.12 in 2.02 in (1932)
Month to date precipitation 0.05 0.60  
Year to date precipitation 0.05 0.60  
Snow  
Snow 0.00 in 0.00 in 5.00 in (1960)
Month to date snowfall 0.0 0.1  
Since 1 July snowfall 0.2 0.3  
Snow Depth 0.00 in    
Sea Level Pressure  
Sea Level Pressure 29.95 in    
Wind  
Wind Speed 18 mph (West)    
Max Wind Speed 29 mph    
Max Gust Speed 39 mph    
Visibility 9 miles    
Events Rain    
T = Trace of Precipitation, MM = Missing Value Source: NWS Daily Summary

Daily Weather History Graph

Daily Weather History Graph

Search for Another Location

Airport or City:

Trip Planner

Search our weather history database for the weather conditions in past years. The results will help you decide how hot, cold, wet, or windy it might be!

Date:

Astronomy

Jan. 05, 2014 Rise Set
Actual Time 7:14 AM CST 5:12 PM CST
Civil Twilight 6:46 AM CST 5:40 PM CST
Nautical Twilight 6:15 AM CST 6:11 PM CST
Astronomical Twilight 5:45 AM CST 6:41 PM CST
Moon 10:09 AM CST (1/5) 10:25 PM CST (1/5)
Length of Visible Light 10h 53m
Length of Day
9h 58m
Waxing Crescent, 25% of the Moon is Illuminated
Jan 5
Waxing Crescent
Jan 7
First Quarter
Jan 15
Full
Jan 23
Last Quarter
Jan 30
New

Hourly Weather History & Observations

Time (CST) Temp. Windchill Dew Point Humidity Pressure Visibility Wind Dir Wind Speed Gust Speed Precip Events Conditions
12:53 AM 53.1 °F - 43.0 °F 69% 29.88 in 10.0 mi SSE 16.1 mph - N/A   Overcast
1:53 AM 53.1 °F - 43.0 °F 69% 29.88 in 10.0 mi South 12.7 mph 21.9 mph N/A   Overcast
2:53 AM 52.0 °F - 44.1 °F 74% 29.86 in 10.0 mi South 12.7 mph - N/A   Overcast
3:53 AM 52.0 °F - 45.0 °F 77% 29.84 in 10.0 mi South 12.7 mph - 0.00 in   Overcast
4:53 AM 52.0 °F - 45.0 °F 77% 29.81 in 10.0 mi South 13.8 mph - 0.00 in   Overcast
5:53 AM 52.0 °F - 46.0 °F 80% 29.80 in 10.0 mi South 13.8 mph - 0.00 in Rain Light Rain
6:53 AM 52.0 °F - 46.9 °F 83% 29.78 in 10.0 mi South 15.0 mph - 0.01 in   Overcast
7:40 AM 53.6 °F - 48.2 °F 82% 29.76 in 10.0 mi South 18.4 mph 26.5 mph N/A   Overcast
7:53 AM 55.0 °F - 48.0 °F 77% 29.76 in 10.0 mi South 20.7 mph 29.9 mph N/A   Overcast
8:20 AM 53.6 °F - 48.2 °F 82% 29.76 in 10.0 mi South 16.1 mph 27.6 mph 0.00 in   Overcast
8:53 AM 55.9 °F - 48.9 °F 77% 29.75 in 10.0 mi South 21.9 mph 28.8 mph 0.00 in   Overcast
9:53 AM 55.0 °F - 51.1 °F 86% 29.77 in 10.0 mi SSW 18.4 mph - 0.02 in   Overcast
10:07 AM 53.6 °F - 51.8 °F 94% 29.78 in 2.5 mi SW 17.3 mph - 0.00 in Rain Light Rain
10:37 AM 53.6 °F - 51.8 °F 94% 29.78 in 4.0 mi WSW 19.6 mph 28.8 mph 0.01 in Rain Light Rain
10:46 AM 53.6 °F - 51.8 °F 94% 29.78 in 7.0 mi WSW 16.1 mph 26.5 mph 0.01 in Rain Light Rain
10:53 AM 51.1 °F - 48.0 °F 89% 29.80 in 4.0 mi NW 19.6 mph 28.8 mph 0.01 in Rain Light Rain
11:01 AM 46.4 °F 39.0 °F 42.8 °F 87% 29.81 in 5.0 mi WNW 19.6 mph 31.1 mph 0.01 in Rain Light Rain
11:15 AM 44.6 °F 35.7 °F 41.0 °F 87% 29.83 in 10.0 mi WNW 24.2 mph 32.2 mph 0.01 in Rain Light Rain
11:53 AM 43.0 °F 34.5 °F 37.9 °F 82% 29.85 in 10.0 mi WNW 19.6 mph 26.5 mph 0.01 in   Overcast
12:53 PM 37.9 °F 28.2 °F 35.1 °F 89% 29.88 in 10.0 mi WNW 18.4 mph 25.3 mph N/A   Overcast
1:24 PM 35.6 °F 25.9 °F 33.8 °F 93% 29.89 in 10.0 mi WNW 16.1 mph 26.5 mph N/A   Overcast
1:53 PM 35.1 °F 24.5 °F 30.0 °F 82% 29.92 in 10.0 mi NW 18.4 mph 25.3 mph N/A   Overcast
2:01 PM 35.6 °F 24.5 °F 28.4 °F 75% 29.93 in 10.0 mi NW 20.7 mph 27.6 mph N/A   Overcast
2:53 PM 33.1 °F 21.5 °F 25.0 °F 72% 29.99 in 10.0 mi NW 19.6 mph 27.6 mph N/A   Overcast
3:53 PM 30.9 °F 18.4 °F 21.9 °F 69% 30.04 in 10.0 mi WNW 20.7 mph 27.6 mph N/A   Overcast
4:53 PM 30.0 °F 17.5 °F 19.0 °F 64% 30.10 in 10.0 mi NW 19.6 mph 29.9 mph N/A   Overcast
5:17 PM 28.4 °F 15.4 °F 17.6 °F 64% 30.12 in 10.0 mi NW 19.6 mph 27.6 mph N/A   Overcast
5:53 PM 28.9 °F 15.8 °F 17.1 °F 61% 30.16 in 10.0 mi NNW 20.7 mph 26.5 mph N/A   Overcast
6:53 PM 27.0 °F 12.8 °F 15.1 °F 61% 30.22 in 10.0 mi NW 21.9 mph 31.1 mph N/A   Overcast
7:53 PM 26.1 °F 11.6 °F 14.0 °F 60% 30.27 in 10.0 mi NNW 21.9 mph 29.9 mph N/A   Mostly Cloudy
8:53 PM 23.0 °F 8.3 °F 12.0 °F 63% 30.31 in 10.0 mi North 19.6 mph 35.7 mph N/A   Clear
9:53 PM 21.9 °F 7.3 °F 12.0 °F 66% 30.36 in 10.0 mi NNW 18.4 mph 31.1 mph N/A   Partly Cloudy
10:53 PM 21.0 °F 8.6 °F 10.9 °F 65% 30.40 in 10.0 mi NNW 12.7 mph 24.2 mph N/A   Clear
11:53 PM 19.0 °F 2.7 °F 3.9 °F 52% 30.43 in 10.0 mi NNW 20.7 mph 27.6 mph N/A   Clear